Location: Ammerl�gen
(47.2167°N, 9.6000°E)
Time: 08:24:49
(UTC+00:00)

RS-15 - Pass Details

Date: 08 December 2021
Orbit: 1882 x 2162 km, 64.8° (Epoch: 17 January)

Event Time Altitude Azimuth Distance (km) Brightness Sun altitude
Exits shadow 02:32:55 78° 44° (NE) 2,112 8.0 -43.4°
Drops below altitude 10° 02:44:02 10° 38° (NE) 4,646 10.4 -41.6°
Sets 02:47:31 0° 39° (NE) 5,672 11.0 -41.0°
